TimeEST,TemperatureF,Dew PointF,Humidity,Sea Level PressureIn,VisibilityMPH,Wind Direction,Wind SpeedMPH,Gust SpeedMPH,PrecipitationIn,Events,Conditions,WindDirDegrees,DateUTC
12:53 AM,57.9,53.1,84,30.07,9.0,North,8.1,-,N/A,,Overcast,10,2012-11-20 05:53:00
1:46 AM,57.2,53.6,88,30.07,9.0,North,6.9,-,N/A,,Overcast,360,2012-11-20 06:46:00
1:53 AM,57.9,54.0,87,30.06,10.0,North,6.9,-,N/A,,Overcast,10,2012-11-20 06:53:00
2:46 AM,57.2,53.6,88,30.05,10.0,North,6.9,-,N/A,,Overcast,360,2012-11-20 07:46:00
2:53 AM,57.0,54.0,89,30.04,10.0,North,6.9,-,N/A,,Overcast,350,2012-11-20 07:53:00
3:05 AM,57.2,53.6,88,30.04,10.0,North,5.8,-,N/A,,Overcast,360,2012-11-20 08:05:00
3:12 AM,57.2,53.6,88,30.05,10.0,North,5.8,-,N/A,,Overcast,10,2012-11-20 08:12:00
3:53 AM,57.9,54.0,87,30.04,10.0,NNW,4.6,-,N/A,,Overcast,340,2012-11-20 08:53:00
4:03 AM,57.2,53.6,88,30.04,10.0,North,4.6,-,N/A,,Overcast,360,2012-11-20 09:03:00
4:53 AM,57.0,55.0,93,30.03,6.0,North,6.9,-,N/A,,Overcast,350,2012-11-20 09:53:00
5:53 AM,57.9,55.0,90,30.04,8.0,NW,4.6,-,N/A,,Overcast,310,2012-11-20 10:53:00
6:53 AM,57.0,55.0,93,30.06,3.0,NNW,5.8,-,N/A,,Overcast,330,2012-11-20 11:53:00
7:16 AM,57.2,55.4,94,30.07,2.5,North,5.8,-,N/A,,Overcast,350,2012-11-20 12:16:00
7:53 AM,57.9,55.9,93,30.07,3.0,NNW,4.6,-,N/A,,Overcast,330,2012-11-20 12:53:00
8:53 AM,59.0,55.0,87,30.09,10.0,North,8.1,-,N/A,,Overcast,360,2012-11-20 13:53:00
9:34 AM,60.8,55.4,82,30.09,9.0,North,8.1,-,N/A,,Overcast,10,2012-11-20 14:34:00
9:53 AM,60.1,55.0,83,30.09,9.0,North,8.1,-,N/A,,Overcast,360,2012-11-20 14:53:00
10:53 AM,64.9,55.9,73,30.06,10.0,NNE,6.9,-,N/A,,Overcast,30,2012-11-20 15:53:00
11:11 AM,66.2,55.4,68,30.06,10.0,NE,5.8,-,N/A,,Scattered Clouds,40,2012-11-20 16:11:00
11:53 AM,70.0,57.0,63,30.04,10.0,North,5.8,-,N/A,,Partly Cloudy,360,2012-11-20 16:53:00
12:53 PM,72.0,57.9,61,30.01,10.0,North,9.2,-,N/A,,Partly Cloudy,360,2012-11-20 17:53:00
1:53 PM,75.0,57.9,55,29.98,10.0,NW,6.9,-,N/A,,Mostly Cloudy,320,2012-11-20 18:53:00
2:53 PM,73.9,57.9,57,29.96,10.0,North,8.1,-,N/A,,Overcast,350,2012-11-20 19:53:00
3:53 PM,72.0,59.0,64,29.96,10.0,NW,9.2,-,N/A,,Overcast,320,2012-11-20 20:53:00
4:53 PM,72.0,59.0,64,29.96,10.0,WNW,5.8,-,N/A,,Overcast,300,2012-11-20 21:53:00
5:53 PM,68.0,60.1,76,29.96,10.0,NW,4.6,-,N/A,,Clear,310,2012-11-20 22:53:00
6:53 PM,66.0,59.0,78,29.99,10.0,NW,6.9,-,N/A,,Clear,310,2012-11-20 23:53:00
7:53 PM,64.9,59.0,81,30.01,10.0,NNW,6.9,-,N/A,,Clear,330,2012-11-21 00:53:00
8:53 PM,64.0,57.9,80,30.02,10.0,NNW,5.8,-,N/A,,Clear,340,2012-11-21 01:53:00
9:53 PM,63.0,57.9,84,30.03,10.0,North,5.8,-,N/A,,Clear,360,2012-11-21 02:53:00
10:53 PM,62.1,55.9,80,30.03,10.0,NNE,5.8,-,N/A,,Clear,30,2012-11-21 03:53:00
11:53 PM,60.1,54.0,80,30.03,10.0,NNE,4.6,-,N/A,,Clear,20,2012-11-21 04:53:00